This is the latest recevied weather packets stored in our database for station/object KO6MEX-13. If no packets are shown the sender has not sent any weather packets the latest 10 day(s).
| Time | Temp. | Humidity | Pressure | Rain* | Wind** | Luminosity | Snow |
|---|---|---|---|---|---|---|---|
| 1777903709 | 10.56° C | 83% | 1018.5 hPa | 0 mm | - | 41 W/m² | - |
| 1777903405 | 10° C | 83% | 1018.7 hPa | 0 mm | - | 39 W/m² | - |
| 1777903102 | 10° C | 83% | 1018.6 hPa | 0 mm | - | 34 W/m² | - |
| 1777902798 | 9.44° C | 84% | 1018.5 hPa | 0 mm | - | 30 W/m² | - |
| 1777902496 | 8.89° C | 87% | 1018.7 hPa | 0 mm | - | 26 W/m² | - |
| 1777902192 | 8.89° C | 88% | 1018.5 hPa | 0 mm | - | 19 W/m² | - |
| 1777901891 | 8.89° C | 88% | 1018.6 hPa | 0 mm | - | 16 W/m² | - |
| 1777901588 | 8.89° C | 88% | 1018.6 hPa | 0 mm | - | 14 W/m² | - |
| 1777901285 | 8.89° C | 88% | 1018.5 hPa | 0 mm | - | 11 W/m² | - |
| 1777900982 | 8.89° C | 88% | 1018.5 hPa | 0 mm | - | 8 W/m² | - |
| 1777900680 | 8.89° C | 88% | 1018.3 hPa | 0 mm | - | 6 W/m² | - |
| 1777900377 | 8.89° C | 88% | 1018.3 hPa | 0 mm | - | 3 W/m² | - |
| 1777900074 | 8.89° C | 88% | 1018.3 hPa | 0 mm | - | 1 W/m² | - |
| 1777899770 | 8.89° C | 88% | 1018.5 hPa | 0 mm | - | 0 W/m² | - |
| 1777899467 | 8.89° C | 88% | 1018.6 hPa | 0 mm | - | 0 W/m² | - |
| 1777899165 | 8.89° C | 87% | 1018.5 hPa | 0 mm | - | 0 W/m² | - |
| 1777898862 | 8.89° C | 87% | 1018.3 hPa | 0 mm | - | 0 W/m² | - |
| 1777898559 | 8.89° C | 88% | 1018.1 hPa | 0 mm | - | 0 W/m² | - |
| 1777898257 | 8.89° C | 88% | 1018.2 hPa | 0 mm | - | 0 W/m² | - |
| 1777897954 | 8.89° C | 88% | 1018.2 hPa | 0 mm | - | 0 W/m² | - |
| 1777897650 | 8.89° C | 87% | 1017.9 hPa | 0 mm | - | 0 W/m² | - |
| 1777897346 | 8.89° C | 87% | 1018.1 hPa | 0 mm | - | 0 W/m² | - |
| 1777897042 | 8.89° C | 87% | 1018.1 hPa | 0 mm | - | 0 W/m² | - |
| 1777896739 | 9.44° C | 87% | 1018.1 hPa | 0 mm | - | 0 W/m² | - |
| 1777896436 | 9.44° C | 86% | 1018.3 hPa | 0 mm | - | 0 W/m² | - |
* Rain latest hour (hover to see other rain measurements)
** Current wind speed in m/s (hover to see current wind gust speed)